Train No Train Name From To Distance Stops avg_speed (km/hr)
12562 Swatantrata Sainani Express New Delhi Jaynagar 1241 19 55
A Train's "Departure" Station, "Arrival" Station and "Distance" may vary. Although we have verified some of this data from enquiry.indianrail.gov.in
Train No Start Date (yyyy-mm-dd) Status Delay Time Source
12562 2017-01-01 Late 26 hours 13 minutes Source
12562 2017-01-02 Late 35 hours 00 minutes Source
12562 2017-01-03 Late 70 hours 30 minutes Source
12562 2017-01-04 Late 25 hours 25 minutes Source
12562 2017-01-05 Late 49 hours 30 minutes Source
12562 2017-01-07 Late 40 hours 50 minutes Source
12562 2017-01-09 Late 19 hours 55 minutes Source
12562 2017-01-11 Late 19 hours 17 minutes Source
12562 2017-01-12 Late 26 hours 45 minutes Source
12562 2017-01-14 Late 15 hours 45 minutes Source
12562 2017-01-17 Late 27 hours 00 minutes Source
12562 2017-01-18 Late 27 hours 00 minutes Source
12562 2017-01-19 Late 22 hours 55 minutes Source
12562 2017-01-24 Late 21 hours 55 minutes Source
12562 2017-01-25 Late 20 hours 10 minutes Source
12562 2017-01-26 Late 23 hours 02 minutes Source
12562 2017-01-28 Late 16 hours 00 minutes Source
12562 2017-01-29 Late 17 hours 55 minutes Source
12562 2017-01-30 Late 22 hours 20 minutes Source
12562 2017-01-31 Late 28 hours 55 minutes Source
12562 2017-02-01 Late 29 hours 05 minutes Source
12562 2017-02-02 Late 28 hours 10 minutes Source
12562 2017-02-04 Late 22 hours 00 minutes Source
12562 2017-02-07 Late 25 hours 45 minutes Source
12562 2017-02-08 Late 16 hours 42 minutes Source
12562 2017-02-13 Late 15 hours 40 minutes Source
12562 2017-02-14 Late 15 hours 30 minutes Source
12562 2017-02-16 Late 18 hours 30 minutes Source
12562 2017-02-19 Late 17 hours 20 minutes Source
12562 2017-02-20 Late 15 hours 45 minutes Source
12562 2017-02-21 Late 16 hours 14 minutes Source
12562 2017-02-22 Late 26 hours 40 minutes Source
12562 2017-02-23 Late 19 hours 25 minutes Source
12562 2017-03-03 Late 16 hours 05 minutes Source
12562 2017-03-06 Late 15 hours 45 minutes Source
12562 2017-03-08 Late 18 hours 20 minutes Source
12562 2017-03-09 Late 16 hours 40 minutes Source
12562 2017-03-11 Late 21 hours 45 minutes Source
12562 2017-03-14 Late 26 hours 55 minutes Source
12562 2017-03-15 Late 15 hours 43 minutes Source
12562 2017-03-16 Late 18 hours 00 minutes Source
12562 2017-04-28 Late 15 hours 55 minutes Source
12562 2017-04-29 Late 23 hours 15 minutes Source
12562 2017-04-30 Late 16 hours 25 minutes Source
Page 1 of 1, showing 44 records out of 44 total